map of FEZ home
FEZ - Airport
Location
City:  Fez, Taza-Al Hoceima-Taounate, Morocco
Near (Alt.):Fès
Name:Fès-Saïss International Airport
ICAO:GMFF
IATA:FEZ

Details
Type:Airport (Aerodrome, Airfield)
Use:Public/Civil, International (customs port of entry)
Latitude:33°55'38"N (33.927222)
Longitude:4°58'40"W (-4.977777)
Elevation:1896 ft (578 m)
Variation:0.73°W (WMM2015v2 magnetic declination)
0.14° annual change
Runways:1
Longest:10499 × 148 ft (3200 × 45 m), paved

Time
Time Zone:UTC+0 (DST+1)
Local Time:

Weather
METAR:GMFF 041400Z 05008KT 020V090 CAVOK 17/05 Q1025 NOSIG
TAF:GMFF 041100Z 0412/0518 06010KT CAVOK
BECMG 0418/0420 20004KT

Related Locations
Nearby:
Farthest:KKE: 12322 mi / 19830 km
Kerikeri/Bay of Islands, NTL, NZ

Find:

   beyond  
but within

Other Information
Maps:
NOTAMs:
Links:
Sources:

  
  • flag of Morocco
  

Sectional Chart

Flight Planning
at skyvector.com

Satellite Image

Google Maps Satellite view

 

Copyright © 2004-2019 Karl L. Swartz. All rights reserved.
The Great Circle Mapper name and logo are trademarks of the Great Circle Mapper.
All other trademarks mentioned herein belong to their respective owners.
Please see credits for attibutions and further copyright information.

  Follow gcmap on Facebook Follow gcmap on Twitter GCmap on LinkedIn

hCard Microformat

Geo Microformat